TimeEDT,TemperatureF,Dew PointF,Humidity,Sea Level PressureIn,VisibilityMPH,Wind Direction,Wind SpeedMPH,Gust SpeedMPH,PrecipitationIn,Events,Conditions,WindDirDegrees,DateUTC
12:53 AM,71.1,68.0,90,30.06,10.0,NE,4.6,-,N/A,,Overcast,50,2013-06-23 04:53:00
1:53 AM,71.1,66.9,87,30.06,10.0,East,4.6,-,N/A,,Partly Cloudy,90,2013-06-23 05:53:00
2:53 AM,70.0,66.0,87,30.05,10.0,East,4.6,-,N/A,,Scattered Clouds,90,2013-06-23 06:53:00
3:53 AM,68.0,66.0,93,30.06,10.0,Calm,Calm,-,N/A,,Overcast,0,2013-06-23 07:53:00
4:53 AM,68.0,66.0,93,30.06,10.0,Calm,Calm,-,N/A,,Scattered Clouds,0,2013-06-23 08:53:00
5:53 AM,70.0,66.0,87,30.08,10.0,East,3.5,-,N/A,,Partly Cloudy,80,2013-06-23 09:53:00
6:53 AM,71.1,66.0,84,30.09,10.0,ENE,4.6,-,N/A,,Clear,70,2013-06-23 10:53:00
7:53 AM,75.0,66.9,76,30.09,10.0,East,5.8,-,N/A,,Clear,100,2013-06-23 11:53:00
8:53 AM,79.0,68.0,69,30.09,10.0,East,4.6,-,N/A,,Clear,90,2013-06-23 12:53:00
9:53 AM,82.0,69.1,65,30.07,10.0,SW,6.9,-,N/A,,Clear,220,2013-06-23 13:53:00
10:53 AM,84.0,69.1,61,30.06,10.0,WSW,8.1,-,N/A,,Clear,250,2013-06-23 14:53:00
11:53 AM,86.0,70.0,59,30.05,10.0,SSW,6.9,-,N/A,,Scattered Clouds,210,2013-06-23 15:53:00
12:53 PM,87.1,69.1,55,30.04,10.0,SSW,9.2,-,N/A,,Scattered Clouds,210,2013-06-23 16:53:00
1:53 PM,88.0,69.1,53,30.01,10.0,West,6.9,-,N/A,,Partly Cloudy,260,2013-06-23 17:53:00
2:53 PM,89.1,71.1,55,30.00,10.0,NW,15.0,-,N/A,,Clear,310,2013-06-23 18:53:00
3:53 PM,81.0,66.0,60,30.01,10.0,West,16.1,32.2,N/A,,Mostly Cloudy,260,2013-06-23 19:53:00
4:53 PM,77.0,66.9,71,30.05,10.0,Variable,3.5,-,0.00,Rain,Light Rain,0,2013-06-23 20:53:00
5:53 PM,77.0,69.1,76,30.04,10.0,WSW,3.5,-,0.00,,Clear,240,2013-06-23 21:53:00
6:53 PM,75.9,70.0,82,30.01,10.0,ESE,4.6,-,N/A,,Clear,110,2013-06-23 22:53:00
7:53 PM,75.0,70.0,84,30.01,10.0,Calm,Calm,-,N/A,,Clear,0,2013-06-23 23:53:00
8:53 PM,73.0,69.1,87,30.01,10.0,ESE,4.6,-,N/A,,Clear,110,2013-06-24 00:53:00
9:53 PM,71.1,68.0,90,30.03,10.0,East,4.6,-,N/A,,Clear,90,2013-06-24 01:53:00
10:53 PM,71.1,68.0,90,30.03,10.0,Calm,Calm,-,N/A,,Clear,0,2013-06-24 02:53:00
11:53 PM,69.1,66.9,93,30.03,10.0,Calm,Calm,-,N/A,,Clear,0,2013-06-24 03:53:00